Tracking 35237 objects as of 6-Sep-2026
HD Live streaming from Space Station
objects crossing your sky now

COSMOS 1501 DEB


COSMOS 1501 DEB is no longer on orbit


NORAD ID: 14947
Int'l Code: 1983-101E
Launch date: September 30, 1983
Source: Commonwealth of Independent States (former USSR) (CIS)
Launch site: PLESETSK MISSILE AND SPACE COMPLEX (PKMTR)
Decay date: 1984-09-05

Note: This is SATELLITE DEBRIS
Your satellite tracking list
Your tracking list is empty




NASA's NSSDC Master Catalog

Two Line Element Set (TLE):
1 14947U 83101  E 84249.71196237  .23830599 -10927-4 +58473-2 0  9993
2 14947 082.8401 233.0289 0013154 172.2397 196.0521 16.29061851052372
Source of the keplerian elements: AFSPC